Weather in Funchal

Portugal     32°39′04″N   16°54′35″W
temp.,
°C
wind,
m/s
gust,
m/s
humid.,
%
clouds,
%
prec.,
mm/h
press.,
hPa
HPBL,
m
26 january, tue
tue2600:00+12ne018974 0.1 102639
03:00+11nne01790 0.0 102623
06:00+11n11770 0.0 102627
09:00+12ene11680 0.0 102723
12:00+18e12550 0.0 1028410
15:00+19se12610 0.0 1026452
18:00+15se11810 0.0 102673
21:00+12e11840 0.0 102741
27 january, wed
wed2700:00+12e11800 0.0 102642
03:00+12ese12780 0.0 102553
06:00+13e01720 0.0 102429
09:00+14se11680 0.0 102528
12:00+20ese23530 0.0 1025464
15:00+20nne116051 0.0 1023533
18:00+16ese128227 0.0 102369
21:00+14ene118015 0.0 102437
28 january, thu
thu2800:00+14e118357 0.0 102446
03:00+13ese017898 0.0 102327
06:00+13ese116990 0.0 102226
09:00+14wnw016292 0.0 102325
12:00+20se124390 0.0 1024318
15:00+21se014270 0.0 1022424
18:00+16se117569 0.0 102242
21:00+13w116572 0.0 102323
29 january, fri
fri2900:00+13se115967 0.0 102324
03:00+14sw113819 0.0 102126
06:00+13sw124021 0.0 102126
09:00+13ssw114363 0.0 102231
12:00+20w124131 0.0 1025349
15:00+21wnw12410 0.0 1023329
18:00+16sw11733 0.0 102350
21:00+13w115844 0.0 102523
30 january, sat
sat3000:00+12nnw116222 0.0 102630
03:00+13nnw11520 0.0 102624
06:00+12nne11530 0.0 102528
09:00+14ne00510 0.0 102728
12:00+20sse01460 0.0 1027359
15:00+20e00570 0.0 1026288
18:00+16n11830 0.0 102670
21:00+13nne11770 0.0 102824